Wind_Speed
9 9 9 10 10 9 9 9 9 9 9 9 10 10 10 10 10 10 9 9 9 8 8 8 8 7 7 6 6 6 6 6 6 6 6 7 7 6 7 7 8 8 9
12 11 11 11 11 11 11 11 11 10 10 11 11 11 11 11 11 10 10 9 9 9 8 8 8 7 7 7 7 7 7 7 7 7 7 7 7 7 7 7 8 9 9
13 13 12 12 13 13 13 12 12 11 11 11 12 12 12 12 11 11 10 10 9 9 8 8 7 7 7 7 7 7 8 8 8 8 8 8 8 8 8 8 8 9 9
15 14 14 14 14 15 14 14 13 12 12 12 12 12 12 12 11 10 10 9 9 8 7 7 7 7 7 7 7 8 8 9 9 9 9 9 9 9 9 9 9 10 10
17 16 16 16 16 16 15 15 14 13 12 12 12 12 12 11 10 10 9 9 8 7 7 6 6 6 7 7 7 8 9 9 10 10 10 10 10 10 10 10 10 10 10
17 17 16 17 17 17 16 15 14 13 13 12 12 12 11 11 10 9 8 8 7 6 6 6 6 6 6 7 8 8 9 10 10 10 10 10 10 10 10 10 10 10 10
15 16 16 17 17 17 16 15 14 14 13 12 12 11 11 10 9 8 7 6 6 5 5 5 6 6 6 7 8 9 9 9 10 10 10 11 11 11 11 11 10 10 10
13 15 15 17 16 16 16 15 14 14 13 12 11 11 10 9 8 7 6 5 5 5 6 6 6 7 7 8 8 9 9 10 11 11 11 12 12 12 12 11 11 11 10
13 14 14 15 16 15 15 15 14 13 12 12 11 11 10 9 8 7 6 5 6 6 6 7 7 7 8 8 9 10 10 10 10 10 10 12 12 12 12 12 12 12 11
11 13 13 14 15 15 15 14 13 13 12 11 11 10 9 9 8 6 6 6 6 6 6 7 8 8 9 9 9 10 10 10 11 10 9 11 11 12 12 12 12 12 12
10 11 12 14 14 14 14 14 13 12 12 11 11 10 9 9 7 7 6 6 6 7 7 8 9 9 9 9 9 10 10 10 11 11 9 10 11 11 12 12 13 13 13
10 10 11 13 13 13 13 13 13 12 12 11 10 10 9 8 8 7 7 7 7 8 8 9 9 10 10 10 11 11 11 11 11 11 10 10 11 11 12 13 13 14 14
11 10 11 12 13 13 13 13 12 12 11 11 10 10 10 9 8 8 8 8 9 9 10 11 11 12 12 12 13 13 13 13 12 11 10 11 12 12 12 13 14 14 15
11 11 10 11 12 12 12 12 12 12 11 11 10 10 10 10 10 10 10 10 11 11 12 13 14 14 15 15 15 15 15 15 15 13 13 13 13 13 13 14 14 15 15
12 12 11 11 12 12 12 12 11 11 11 11 10 10 10 11 11 12 13 13 13 14 15 16 16 18 19 18 18 17 18 18 17 16 15 15 15 14 14 14 15 16 17
15 13 12 11 12 12 13 13 12 12 12 11 11 11 12 12 13 14 15 16 16 17 18 19 20 21 21 21 21 21 21 22 21 20 17 17 17 17 17 16 17 18 19
17 15 13 13 14 14 14 13 13 13 13 13 12 13 13 14 15 16 17 18 19 20 21 22 24 24 24 24 24 25 24 25 25 24 22 20 20 20 20 20 20 20 21
18 16 14 15 15 15 15 15 14 14 14 14 14 15 16 16 17 18 20 21 22 24 25 26 27 27 27 27 27 27 27 28 27 26 25 25 24 24 24 24 24 24 24
21 17 16 16 16 17 17 17 16 16 16 16 16 17 18 19 20 21 23 24 25 26 27 29 31 31 30 30 30 29 30 30 30 29 29 29 28 27 26 27 27 28 28
23 20 19 18 18 18 19 19 19 19 19 19 19 20 21 22 24 25 26 27 28 30 31 32 33 33 31 31 30 30 31 30 31 31 32 32 31 31 30 30 30 31 32
26 24 22 21 20 20 20 21 21 22 23 23 24 25 25 26 27 28 29 31 32 32 33 34 33 32 31 30 30 30 30 30 29 29 31 32 33 34 34 34 34 35 36
27 25 24 22 21 22 22 23 24 25 26 27 28 29 29 30 30 32 33 33 34 34 34 33 32 32 30 29 29 30 31 30 29 30 32 33 33 34 35 37 38 39 41
28 26 26 24 24 25 25 25 26 27 28 30 32 33 33 33 33 34 34 34 34 33 32 30 30 30 31 31 31 31 31 31 31 31 32 33 34 36 38 39 41 43 45
29 28 28 27 27 27 27 27 28 29 30 31 33 35 36 35 35 34 33 33 33 33 31 29 29 29 31 30 30 30 31 32 33 33 34 35 36 38 40 42 44 46 49
30 30 29 29 29 29 30 29 30 30 31 33 34 33 34 35 35 34 34 33 32 31 30 31 30 31 31 31 31 32 32 34 35 36 37 39 40 42 44 45 48 50 52
32 32 32 31 31 31 33 32 32 33 34 35 35 35 34 35 35 35 34 32 32 31 32 32 33 33 34 33 34 35 35 37 38 40 41 43 45 47 49 51 53 54 56
Wind_Direction
251 247 236 234 236 232 230 232 236 243 251 258 258 255 254 254 253 254 256 258 260 263 265 264 264 263 264 265 265 264 261 258 256 256 257 260 264 269 274 280 283 285 286
258 255 246 241 240 238 236 237 240 245 253 259 259 258 258 256 255 257 258 261 264 267 268 269 270 270 271 271 271 270 268 266 264 262 262 262 265 270 274 279 282 286 288
265 261 252 247 243 241 240 240 242 246 253 257 257 259 258 256 256 258 261 265 267 270 273 276 278 279 279 278 277 274 273 272 271 268 266 267 270 272 276 280 282 287 289
273 267 257 250 244 242 240 240 241 246 250 254 256 258 257 256 258 261 265 268 272 277 282 285 285 286 285 283 281 279 278 276 274 272 271 272 273 274 276 278 281 284 288
275 268 260 251 245 242 241 240 242 245 248 252 255 256 255 257 259 263 266 271 277 284 291 293 293 293 292 289 287 284 282 279 276 274 273 273 275 276 277 278 279 282 286
274 268 260 252 245 242 241 240 242 243 246 250 252 253 253 256 259 263 268 275 283 291 298 302 303 304 303 300 297 294 291 286 282 280 274 277 278 279 280 280 280 282 284
273 267 258 251 245 241 240 240 240 242 244 246 249 251 252 255 257 260 267 277 288 298 306 311 313 315 314 309 306 305 302 297 292 287 285 284 283 282 283 283 283 282 283
275 270 259 250 243 239 238 239 239 241 242 245 247 249 250 251 253 257 266 277 289 301 309 315 318 321 320 317 313 311 308 305 301 294 289 285 285 283 284 285 284 282 280
274 267 256 245 239 237 236 236 237 238 240 242 243 244 246 247 250 255 263 274 287 299 308 315 320 323 323 320 317 313 310 309 303 299 294 288 284 283 284 284 284 283 280
272 265 253 242 237 234 232 232 233 235 236 237 239 241 243 246 248 251 258 269 283 297 308 316 320 321 321 322 321 318 314 312 306 305 299 291 293 288 285 283 282 281 279
274 267 254 243 235 230 230 231 230 230 231 233 236 239 241 244 246 249 257 267 280 295 306 312 317 320 321 322 321 319 318 316 314 308 295 295 298 292 287 283 280 280 279
277 267 255 241 233 227 228 229 227 226 227 230 234 238 240 244 246 252 260 272 285 296 302 308 313 315 316 317 318 317 317 321 320 319 300 302 301 294 289 284 280 280 279
275 269 259 244 235 228 226 227 225 225 228 231 236 241 245 249 254 260 269 279 288 295 299 304 308 310 311 312 312 313 314 317 317 314 305 301 301 295 290 286 281 279 280
272 269 263 252 242 233 227 227 226 228 232 234 238 243 250 256 263 269 276 282 288 293 296 299 305 305 306 304 303 306 308 309 309 309 303 300 299 295 289 285 282 280 280
268 266 260 253 244 237 231 229 229 232 235 237 242 248 256 264 269 276 281 285 289 291 294 297 299 302 303 303 300 301 302 301 301 300 298 294 294 292 289 286 283 281 280
263 260 258 254 248 241 236 234 235 238 240 243 248 254 260 266 272 278 282 287 289 290 292 294 296 298 298 298 298 297 297 297 295 295 292 292 290 290 287 285 283 282 282
260 258 259 256 252 247 242 241 244 246 247 251 255 260 265 268 273 277 280 284 286 288 291 293 294 295 295 293 292 292 293 293 292 290 288 290 289 288 285 284 283 284 284
252 255 258 257 253 251 249 249 250 252 255 255 261 265 268 271 273 277 280 283 285 287 289 290 290 291 292 291 290 289 289 289 290 289 288 288 288 286 285 285 285 284 284
247 248 251 256 254 253 253 252 254 257 258 261 265 269 272 274 276 278 281 283 284 285 286 286 288 289 289 288 286 286 285 286 285 286 284 284 284 283 283 284 284 283 284
241 245 248 253 254 254 254 255 256 259 262 266 269 270 274 277 279 281 283 285 285 285 284 285 287 288 287 287 286 286 283 283 282 281 280 281 283 283 283 283 283 283 284
239 241 245 247 251 254 256 256 258 261 264 270 274 275 276 278 280 283 284 286 286 287 286 287 288 288 288 287 287 288 284 282 280 280 278 278 279 281 282 282 282 282 282
239 242 243 244 249 255 256 257 261 265 266 271 276 277 278 279 281 285 285 287 288 287 289 289 287 288 284 284 286 285 285 282 280 279 277 276 277 278 279 281 282 282 282
237 241 246 245 250 256 257 257 262 266 270 273 274 274 274 277 279 283 285 286 288 290 290 291 289 286 285 282 282 284 283 283 280 280 278 277 278 278 280 281 282 283 283
241 242 244 245 248 255 258 260 263 266 270 274 275 274 274 277 280 285 289 289 292 292 292 295 295 293 290 285 284 285 284 283 281 281 280 280 280 281 281 282 283 283 282
244 243 244 246 249 255 260 263 266 270 271 275 279 283 282 282 283 287 291 291 290 291 296 298 295 295 293 287 285 285 286 286 284 283 282 281 281 282 283 282 282 282 282
246 245 247 251 253 258 264 268 272 275 279 282 282 286 288 289 288 290 292 290 289 293 298 297 294 293 291 289 288 286 286 285 284 283 281 280 281 281 282 281 282 282 282
Height
5899 5899 5900 5901 5901 5902 5902 5903 5904 5904 5905 5905 5905 5905 5905 5905 5905 5905 5905 5904 5904 5904 5903 5903 5903 5903 5903 5902 5902 5902 5902 5902 5902 5902 5902 5902 5902 5903 5903 5904 5904 5904 5904
5897 5898 5899 5900 5900 5900 5901 5902 5902 5903 5903 5904 5904 5904 5904 5904 5904 5904 5904 5904 5903 5903 5903 5903 5902 5902 5902 5902 5902 5901 5901 5901 5901 5901 5901 5901 5902 5902 5902 5903 5903 5903 5903
5895 5897 5897 5898 5898 5899 5899 5900 5901 5901 5902 5902 5903 5903 5903 5903 5903 5903 5903 5903 5903 5902 5902 5902 5902 5902 5902 5902 5901 5901 5901 5901 5901 5901 5901 5901 5901 5901 5901 5902 5902 5902 5902
5894 5895 5895 5896 5896 5897 5898 5898 5899 5900 5900 5901 5901 5902 5902 5902 5902 5902 5902 5902 5902 5902 5902 5902 5902 5902 5902 5901 5901 5901 5900 5900 5900 5899 5900 5900 5900 5900 5900 5900 5900 5900 5901
5892 5893 5893 5894 5894 5895 5896 5896 5897 5898 5899 5899 5900 5900 5900 5901 5901 5901 5901 5901 5901 5901 5901 5901 5901 5901 5901 5901 5901 5900 5900 5900 5899 5899 5899 5899 5898 5899 5899 5898 5899 5899 5899
5890 5890 5891 5891 5892 5893 5893 5894 5895 5896 5897 5898 5898 5899 5899 5900 5900 5900 5900 5900 5900 5900 5900 5900 5900 5901 5900 5900 5900 5899 5899 5898 5898 5897 5897 5897 5897 5897 5897 5897 5897 5897 5897
5888 5888 5889 5889 5890 5890 5891 5892 5893 5894 5895 5896 5897 5898 5898 5898 5899 5899 5899 5899 5899 5899 5899 5900 5900 5900 5900 5899 5899 5898 5898 5897 5897 5896 5895 5896 5895 5895 5895 5895 5895 5895 5895
5886 5886 5886 5887 5887 5888 5889 5890 5891 5892 5893 5895 5896 5896 5897 5897 5898 5898 5898 5898 5898 5899 5899 5899 5899 5899 5898 5898 5897 5897 5896 5895 5895 5895 5894 5893 5893 5893 5894 5893 5893 5893 5893
5884 5884 5884 5885 5885 5886 5887 5889 5890 5891 5892 5893 5894 5895 5896 5897 5897 5897 5898 5898 5898 5898 5898 5898 5898 5898 5897 5897 5896 5895 5894 5894 5893 5892 5892 5891 5890 5891 5891 5891 5891 5891 5891
5882 5882 5882 5883 5884 5885 5886 5887 5888 5889 5891 5892 5893 5894 5895 5896 5896 5896 5897 5897 5897 5897 5897 5897 5897 5896 5896 5895 5894 5893 5892 5892 5891 5890 5890 5888 5889 5889 5889 5889 5889 5889 5889
5880 5880 5881 5881 5882 5883 5884 5885 5886 5888 5890 5891 5892 5893 5894 5894 5895 5895 5896 5896 5896 5896 5896 5896 5896 5895 5895 5894 5893 5892 5891 5890 5889 5888 5886 5886 5887 5887 5886 5886 5887 5887 5886
5878 5878 5879 5880 5880 5882 5883 5884 5885 5887 5888 5890 5891 5892 5893 5893 5894 5894 5894 5894 5895 5895 5894 5894 5894 5894 5893 5893 5892 5890 5889 5888 5887 5885 5882 5884 5885 5884 5884 5884 5884 5884 5884
5877 5877 5878 5878 5879 5880 5882 5883 5884 5885 5887 5888 5890 5891 5891 5892 5892 5893 5893 5893 5893 5893 5893 5893 5892 5892 5892 5891 5890 5889 5887 5886 5885 5884 5883 5883 5882 5882 5882 5881 5881 5880 5880
5875 5875 5876 5877 5878 5879 5880 5881 5883 5884 5886 5887 5888 5889 5890 5891 5891 5891 5892 5892 5892 5892 5891 5891 5890 5890 5889 5889 5888 5886 5885 5884 5883 5882 5881 5880 5880 5879 5879 5878 5878 5877 5877
5873 5873 5874 5875 5877 5878 5879 5880 5881 5883 5884 5885 5887 5888 5889 5889 5889 5890 5889 5889 5889 5889 5889 5888 5888 5887 5886 5885 5884 5883 5882 5881 5880 5879 5879 5878 5877 5877 5876 5875 5874 5874 5873
5870 5871 5872 5874 5875 5876 5877 5878 5880 5881 5882 5884 5885 5886 5887 5887 5887 5887 5887 5887 5886 5886 5886 5885 5884 5883 5882 5881 5880 5879 5878 5877 5876 5876 5875 5874 5874 5873 5872 5871 5870 5870 5869
5867 5868 5870 5872 5873 5874 5876 5877 5878 5879 5880 5882 5882 5883 5884 5885 5885 5884 5884 5884 5883 5883 5882 5881 5880 5879 5878 5877 5876 5875 5874 5873 5872 5870 5869 5870 5869 5869 5868 5867 5866 5865 5864
5863 5865 5867 5869 5871 5872 5874 5875 5876 5877 5878 5878 5880 5880 5880 5881 5881 5881 5881 5881 5880 5879 5878 5877 5876 5875 5874 5873 5871 5870 5869 5868 5867 5865 5864 5864 5864 5864 5863 5862 5861 5860 5859
5860 5862 5864 5866 5868 5869 5871 5872 5873 5874 5875 5876 5876 5876 5876 5877 5877 5877 5877 5876 5875 5874 5873 5872 5870 5869 5868 5866 5865 5864 5864 5863 5862 5860 5859 5859 5858 5857 5856 5856 5855 5854 5853
5856 5859 5861 5862 5864 5866 5867 5868 5870 5870 5872 5872 5873 5873 5873 5873 5873 5872 5872 5871 5870 5869 5867 5866 5864 5863 5862 5860 5858 5857 5857 5856 5855 5854 5853 5852 5851 5851 5850 5849 5848 5847 5845
5852 5854 5856 5858 5860 5862 5863 5864 5866 5866 5867 5868 5869 5869 5869 5868 5868 5867 5867 5866 5864 5862 5861 5859 5857 5856 5855 5853 5852 5851 5850 5849 5848 5847 5846 5845 5845 5843 5842 5841 5840 5839 5837
5847 5849 5851 5853 5855 5857 5858 5859 5861 5861 5862 5863 5863 5863 5863 5862 5862 5861 5860 5859 5857 5856 5854 5853 5851 5850 5848 5847 5845 5844 5843 5843 5841 5840 5839 5838 5837 5836 5834 5833 5831 5830 5828
5840 5843 5846 5849 5851 5852 5853 5854 5855 5856 5857 5857 5857 5856 5856 5856 5854 5853 5852 5852 5851 5849 5847 5845 5844 5842 5841 5840 5838 5837 5836 5835 5833 5833 5831 5830 5829 5828 5826 5824 5822 5821 5818
5835 5838 5840 5843 5845 5846 5847 5849 5849 5850 5850 5850 5850 5849 5849 5849 5848 5846 5845 5844 5844 5843 5841 5839 5838 5836 5834 5832 5831 5830 5829 5827 5826 5826 5824 5823 5821 5819 5817 5815 5813 5810 5808
5830 5831 5834 5837 5839 5841 5842 5842 5842 5843 5843 5843 5843 5842 5842 5842 5841 5840 5838 5837 5837 5836 5834 5833 5832 5830 5828 5826 5824 5823 5821 5820 5819 5817 5816 5815 5812 5810 5807 5805 5802 5799 5796
5825 5826 5829 5831 5834 5835 5836 5836 5837 5837 5838 5837 5836 5836 5835 5834 5834 5833 5832 5830 5829 5828 5827 5826 5824 5823 5821 5819 5816 5815 5813 5812 5810 5808 5806 5805 5802 5800 5796 5793 5790 5786 5782